RH
100 102 102 103 105 106 106 106 104 103 101 99 98 97 95 93 90 87 84 81 79 77 75 74 74 76 80 83 87 91 94 97 98 99 102 101 98 97 95 90 84 76 75 88 97 92 86 92 104 108 103 98 96 96 97 95 91 88 85 82 83 85 85
66 73 78 83 89 94 99 104 107 108 106 103 101 98 95 94 91 89 87 84 82 81 79 76 74 71 70 70 72 75 79 82 86 91 96 99 99 99 98 96 91 82 78 86 96 97 90 89 98 108 109 107 106 104 103 101 98 94 91 87 87 90 91
39 42 44 47 51 56 62 69 78 87 94 101 105 105 104 104 100 97 96 93 91 90 87 82 78 76 74 71 69 69 70 71 73 77 81 86 89 91 93 94 91 83 79 84 92 95 92 90 95 104 108 110 110 109 107 105 102 99 96 92 90 91 91
35 36 37 37 37 37 38 40 43 48 55 65 75 83 92 100 104 106 107 103 99 98 96 92 88 86 84 81 76 73 71 70 70 70 70 71 73 75 77 79 80 78 77 79 85 89 89 86 87 94 101 103 105 108 109 109 108 107 104 100 96 94 93
35 35 36 37 37 37 37 37 37 37 38 39 42 47 54 62 72 83 93 98 100 99 98 97 95 91 89 86 82 78 77 77 76 74 73 72 71 70 70 69 70 71 71 72 76 80 82 79 77 81 87 89 91 94 97 98 100 99 97 94 93 91 88
32 33 34 35 36 36 36 37 37 37 38 38 38 38 39 40 43 48 55 64 71 76 80 84 86 86 84 80 74 70 71 74 74 73 73 73 73 75 75 74 74 73 73 73 74 76 77 77 75 75 78 79 80 81 82 84 86 87 88 89 89 88 87
31 31 31 32 33 33 34 35 35 35 36 36 37 37 37 39 40 41 42 44 47 50 53 58 62 68 72 72 68 62 60 60 60 60 61 61 62 65 65 65 66 66 67 69 70 72 74 76 77 76 76 76 76 77 76 76 78 80 82 84 86 87 86
33 33 33 33 33 33 33 33 33 34 34 34 35 35 35 35 36 37 39 41 43 45 46 47 48 50 53 56 56 54 52 51 48 46 47 48 49 51 51 48 46 45 45 46 47 50 53 57 61 63 66 68 69 72 74 75 77 77 77 78 80 82 83
31 32 34 35 36 36 36 37 37 36 36 35 35 35 35 35 35 34 35 35 38 40 42 44 45 46 47 47 47 47 47 46 44 41 39 39 40 42 42 40 38 36 35 33 32 32 33 35 36 38 42 46 48 53 58 61 63 64 66 68 71 73 74
24 25 27 29 30 32 33 35 36 37 38 39 39 38 38 38 37 37 36 35 35 36 36 37 39 41 43 44 45 46 46 46 46 44 42 39 38 38 37 37 36 34 34 33 32 31 30 30 30 30 32 34 35 36 38 40 41 44 46 48 50 51 53
21 21 22 22 23 24 25 26 28 29 31 32 33 34 35 37 37 38 38 38 37 36 36 35 35 36 37 39 40 41 42 43 44 44 44 42 41 40 39 37 36 36 35 35 34 33 31 31 31 31 32 33 33 33 33 33 34 35 35 34 35 37 38
20 20 21 21 21 21 21 22 22 23 24 25 26 26 27 29 31 32 33 34 35 36 37 37 36 36 35 34 35 35 36 38 39 39 40 40 40 39 38 37 36 35 35 35 35 34 33 32 32 33 34 34 34 34 34 33 32 32 32 32 32 33 34
16 17 17 18 18 18 18 18 18 18 19 19 20 21 22 25 26 27 28 29 30 31 33 34 36 36 35 34 32 32 32 32 32 33 33 34 34 34 34 34 33 33 32 32 33 32 31 32 32 33 34 34 35 34 33 31 31 30 31 31 31 31 32
13 13 14 14 14 14 14 14 14 15 15 15 16 16 17 19 21 21 22 23 25 26 27 28 30 32 33 33 33 32 31 30 30 29 29 29 30 30 30 31 31 31 31 31 30 30 30 30 31 31 32 32 32 31 30 30 30 30 29 29 29 29 28
11 11 11 12 12 12 12 12 12 13 13 13 13 13 14 16 16 17 17 17 18 19 20 22 23 24 26 27 28 29 29 29 29 29 29 29 30 30 30 30 31 31 31 30 29 27 27 28 29 30 30 30 30 29 29 29 30 29 27 26 26 26 26
10 10 10 10 10 10 10 10 11 11 11 11 11 11 11 12 13 13 13 13 13 14 14 15 16 16 17 18 20 21 22 22 23 24 25 26 27 27 27 27 28 29 28 27 26 25 24 25 26 27 28 28 27 27 27 27 28 27 25 24 24 24 25
9 9 9 9 9 9 9 9 9 9 9 9 9 9 9 10 10 10 10 10 10 11 11 11 11 11 12 12 13 13 14 15 15 16 17 18 19 19 20 21 21 22 22 22 22 22 22 22 23 24 25 25 24 24 24 24 24 23 23 23 22 22 22
10 10 10 9 9 9 9 9 9 9 10 9 9 9 9 9 9 9 9 9 9 10 10 10 10 10 10 11 11 11 11 12 12 13 13 14 15 15 16 17 18 18 19 19 20 20 20 20 20 21 21 21 20 19 19 18 18 18 18 18 16 16 16
10 10 11 10 10 10 10 10 10 10 10 10 9 9 10 10 10 10 9 10 10 10 10 10 10 11 11 12 12 12 13 13 12 13 13 13 14 14 14 14 15 15 15 15 15 15 14 14 14 14 14 14 14 13 13 13 13 13 12 12 12 12 12
11 11 11 11 11 11 11 11 11 11 10 10 10 10 10 11 11 11 11 12 12 12 12 12 12 12 12 12 12 11 11 11 11 10 10 10 10 10 10 10 10 10 10 9 10 9 9 9 9 9 9 9 9 9 9 9 10 10 10 10 10 10 10
11 11 10 10 10 11 11 11 10 10 10 11 11 11 12 12 13 14 15 15 15 13 12 11 11 10 9 9 9 8 8 8 8 8 8 8 8 8 8 9 9 8 8 8 8 8 8 7 7 7 7 7 7 7 7 7 8 8 8 8 8 8 8
12 12 11 11 11 11 11 12 11 11 12 12 13 13 14 14 15 16 15 14 13 11 10 9 8 8 8 7 7 7 7 7 8 8 8 7 7 7 7 7 8 7 7 7 7 7 8 7 7 7 7 7 7 7 7 7 7 7 8 8 8 8 8
12 12 12 13 13 13 13 13 13 13 13 14 14 14 14 14 13 13 12 10 10 9 8 8 7 7 7 7 6 7 7 7 7 7 8 8 7 7 7 7 7 7 7 7 7 7 7 7 7 7 7 7 7 7 7 7 7 7 8 8 8 8 7
11 11 11 12 13 13 14 13 13 13 13 13 12 12 11 11 11 10 9 9 8 8 7 7 7 7 7 7 7 7 7 7 7 7 7 7 7 7 7 7 7 7 7 7 7 7 7 7 7 7 7 7 7 7 7 6 6 7 7 7 8 8 7
10 9 9 10 11 11 11 11 10 10 11 11 11 10 10 9 9 8 8 7 7 7 7 7 7 7 7 7 7 7 7 7 7 7 7 7 7 7 6 6 6 7 6 6 6 6 6 6 6 6 6 6 6 6 6 6 6 6 7 7 8 8 7
10 9 9 9 9 9 9 9 9 9 9 9 9 9 8 7 7 7 6 6 6 6 6 7 7 7 8 8 8 8 8 7 7 7 6 6 6 6 6 6 6 6 6 6 6 6 6 6 6 6 6 6 6 6 6 6 6 6 7 7 7 8 8
9 9 9 9 9 9 8 8 8 8 8 8 8 8 7 7 7 7 6 6 6 7 7 7 7 8 8 8 8 8 8 7 7 6 6 6 6 6 6 6 6 6 6 6 6 6 6 6 6 6 6 6 6 6 6 6 6 6 6 7 7 7 7
8 8 8 8 8 8 8 7 7 7 7 7 7 7 7 7 8 7 7 6 7 7 7 8 8 8 8 8 8 8 8 8 7 7 6 6 6 6 6 5 6 6 5 6 6 6 6 6 6 6 6 6 6 6 6 6 6 6 6 6 7 7 7
7 7 7 7 7 7 7 6 6 6 7 7 7 7 7 7 8 7 7 7 7 8 8 8 8 8 8 8 8 8 8 8 7 7 7 7 6 6 6 6 6 6 6 6 6 6 6 6 6 6 6 6 6 6 6 6 6 6 6 6 6 7 7
7 7 7 7 7 7 7 7 7 7 7 7 7 7 7 7 8 8 8 8 8 8 8 8 8 8 8 8 8 8 8 8 8 8 7 7 7 6 6 6 6 6 6 6 6 6 6 6 6 6 6 6 6 6 6 6 6 6 6 6 6 6 7
8 8 8 7 7 7 7 7 7 7 7 7 7 7 7 7 7 8 8 8 8 8 8 8 8 7 7 7 7 7 7 7 7 8 7 7 7 7 6 6 6 6 6 6 6 6 6 6 6 6 6 6 6 6 7 7 7 6 6 6 6 6 6
8 8 8 8 8 8 7 7 7 7 7 7 7 7 7 7 7 7 7 7 7 7 7 7 7 6 6 6 6 6 6 6 7 7 7 7 7 7 7 7 6 6 6 6 6 6 6 6 6 6 6 7 7 7 7 7 7 7 7 7 6 6 6
7 8 8 8 8 8 8 7 7 8 7 8 8 7 7 7 7 7 7 7 7 6 6 6 6 6 6 6 6 6 6 6 6 6 6 6 7 6 7 7 6 6 6 6 6 6 6 6 6 6 7 7 7 7 7 7 7 7 7 7 7 7 7
8 8 8 9 8 8 9 9 9 9 8 8 8 8 8 7 7 7 7 7 6 6 6 6 6 6 6 6 6 6 6 6 6 6 6 6 7 6 7 7 6 7 6 6 6 6 6 6 6 6 6 7 7 7 7 7 7 8 8 8 8 8 8
8 8 8 9 9 9 9 10 9 9 9 9 9 9 8 8 8 8 7 7 7 7 7 7 7 7 7 7 7 7 7 6 6 6 6 6 6 7 7 7 6 6 6 6 6 6 6 6 6 6 6 6 6 6 6 7 7 7 7 8 8 8 8
9 9 9 9 10 10 10 10 10 9 9 9 9 9 9 9 9 8 8 8 8 8 8 8 8 8 7 7 7 7 7 6 6 6 6 6 6 6 6 6 6 6 6 6 6 6 6 6 6 6 6 6 6 6 6 6 6 6 6 7 7 7 8
Wind_Speed
118 119 119 120 121 122 123 124 125 126 127 127 127 126 126 126 126 126 125 125 124 124 124 125 124 124 124 125 124 123 123 123 123 123 123 123 123 123 123 124 124 123 119 118 120 121 120 119 119 121 123 123 123 123 124 125 125 125 124 123 122 123 124
117 118 119 120 121 122 122 123 125 126 127 128 128 129 129 129 129 129 129 129 128 129 129 129 129 128 128 128 128 127 127 127 128 127 127 127 128 127 127 128 128 127 125 123 123 125 124 123 121 122 124 124 125 125 126 127 127 127 127 126 125 125 126
114 116 117 118 120 121 122 123 124 125 126 127 128 129 129 130 130 131 131 131 131 132 132 132 132 131 131 131 131 130 130 131 131 131 131 131 132 132 131 132 132 132 130 128 128 128 128 127 125 125 126 127 127 128 128 129 129 129 129 129 129 129 129
112 113 114 115 117 118 120 121 122 124 125 126 127 129 130 131 131 132 133 133 133 134 134 135 134 134 135 134 134 133 133 133 134 134 135 135 135 136 136 136 136 136 135 134 133 133 133 132 131 130 130 131 131 131 131 131 132 132 132 132 132 133 133
111 112 113 114 115 116 117 118 120 121 123 124 125 127 128 129 130 132 133 134 135 136 136 137 137 137 137 137 136 136 135 135 136 136 137 137 137 138 138 139 139 139 139 139 138 137 137 137 135 134 134 135 135 135 135 135 136 136 136 136 136 137 136
111 111 112 113 114 115 116 118 119 120 121 122 123 124 125 126 128 129 131 133 134 135 136 137 138 139 139 139 138 137 137 137 137 138 137 137 137 138 139 140 140 140 140 141 140 140 140 140 139 138 138 138 138 139 139 139 139 139 139 139 140 140 140
110 111 112 113 113 114 115 117 118 119 120 121 122 123 124 125 126 127 128 130 131 133 134 135 136 138 139 140 140 139 138 138 138 138 138 138 138 138 138 139 139 139 140 140 140 141 141 141 141 140 140 140 140 141 141 141 141 141 142 142 143 143 143
111 111 112 113 113 114 114 115 116 117 118 120 121 122 124 124 125 126 127 128 130 131 132 133 135 136 137 139 140 140 140 139 139 139 138 138 138 139 139 139 138 138 138 138 138 139 139 140 140 139 139 140 140 140 141 142 142 143 143 144 144 144 144
111 112 112 113 114 114 115 115 116 117 117 118 119 120 121 123 124 125 127 128 129 131 132 133 134 135 136 137 138 139 140 140 140 140 139 138 139 140 140 140 140 139 139 138 138 138 138 138 138 137 137 137 137 138 139 141 142 142 142 143 144 144 144
111 111 112 112 113 114 115 115 116 117 118 118 119 119 120 121 122 123 124 126 128 130 131 133 134 134 135 136 137 138 139 140 140 141 141 140 140 140 140 140 140 140 140 139 139 138 138 138 137 137 136 137 137 137 138 139 139 140 141 142 142 142 142
110 111 111 111 112 112 113 113 114 115 116 117 118 119 119 120 121 122 123 124 126 127 129 131 132 134 135 136 137 138 139 139 140 141 141 141 141 141 140 140 140 140 139 140 139 138 138 137 137 137 137 138 138 138 138 139 139 140 141 141 141 140 140
110 110 110 111 111 111 112 112 112 113 113 114 115 115 116 117 119 121 122 124 125 126 127 128 130 132 133 135 137 138 139 139 140 140 141 141 141 141 141 140 140 139 139 139 139 139 138 137 137 137 138 138 139 139 140 140 140 140 141 141 141 141 141
108 108 109 109 110 110 110 110 110 111 111 111 112 112 112 113 115 117 120 121 123 124 125 127 128 129 131 132 134 136 137 138 139 140 140 140 140 141 141 141 140 140 139 139 139 139 138 137 137 138 138 138 139 140 141 141 140 140 141 142 142 142 143
106 106 107 107 108 108 108 108 108 108 109 109 110 110 109 110 112 114 116 117 119 121 123 124 126 127 129 131 132 134 135 136 137 138 139 139 139 140 140 140 140 140 140 140 139 139 138 137 138 138 138 139 139 140 140 140 141 141 142 142 142 142 142
103 103 104 104 104 104 104 104 105 105 106 106 107 107 106 107 110 111 112 113 115 116 118 120 122 124 126 128 130 132 133 134 135 136 137 138 138 139 139 140 140 141 141 140 140 139 138 138 138 138 139 139 140 140 139 140 141 141 141 141 140 140 139
99 99 100 100 100 101 101 101 101 101 102 103 103 103 104 104 106 108 109 110 110 112 113 116 118 120 122 123 125 127 129 131 132 133 134 135 136 137 138 138 139 140 140 140 139 138 138 137 138 138 139 139 139 139 139 139 140 141 140 139 139 138 138
94 95 96 96 97 97 97 97 98 98 98 99 100 100 100 101 102 103 104 105 105 107 109 111 113 114 115 117 119 121 122 124 125 127 128 129 130 131 132 133 134 135 135 136 136 136 136 135 136 136 137 138 138 137 137 137 138 138 138 138 138 137 136
89 90 92 93 93 94 94 94 95 95 96 96 97 97 97 97 98 99 100 100 101 103 105 106 107 108 109 110 112 114 115 116 117 118 119 120 121 122 124 125 126 127 128 130 131 132 132 132 132 133 134 134 134 134 134 134 134 134 135 136 135 134 134
84 86 87 89 90 91 92 92 92 93 94 94 94 94 94 95 95 96 96 97 98 100 101 102 102 103 104 105 106 108 109 110 111 111 112 113 115 115 116 117 119 120 122 123 124 125 126 126 126 126 127 128 129 129 129 128 129 129 130 130 130 130 130
80 81 82 84 85 87 88 89 90 91 91 92 92 92 92 92 93 94 94 95 97 99 99 99 99 100 101 101 102 103 104 105 106 106 107 109 110 109 109 111 113 114 115 116 117 117 118 118 118 119 119 120 121 121 121 121 121 122 123 123 123 124 124
76 77 78 79 81 82 84 86 87 88 88 89 89 89 89 90 91 91 92 94 96 96 96 96 97 97 97 97 97 98 99 100 101 101 102 103 104 103 103 105 106 108 108 109 110 110 111 111 112 112 113 113 113 114 115 114 114 114 116 116 117 117 117
73 74 75 76 77 78 80 82 83 84 85 85 86 86 87 87 87 89 90 91 91 92 92 93 93 93 94 94 94 94 94 95 96 96 97 98 98 98 98 99 100 101 102 103 104 105 106 106 107 108 108 109 109 110 110 110 109 109 111 112 112 112 112
72 72 73 73 74 75 76 78 79 80 81 82 82 83 83 83 84 86 87 87 87 88 89 89 90 90 91 91 91 90 91 91 91 92 93 93 94 94 94 95 95 96 98 99 100 101 102 103 104 104 105 106 106 106 107 107 106 106 107 108 109 109 109
71 72 72 72 73 74 75 76 77 77 77 78 79 80 80 81 82 83 84 84 84 85 86 87 87 87 88 88 88 88 88 88 88 89 89 90 91 92 92 92 93 94 94 96 97 98 99 99 100 101 102 102 103 104 104 104 103 103 103 104 105 106 106
71 71 71 71 72 73 74 75 75 75 75 76 76 78 79 79 79 80 81 82 82 82 83 83 84 84 85 85 86 86 86 86 87 87 87 87 88 89 89 90 90 91 92 93 93 94 95 96 97 98 99 99 100 101 101 101 101 100 100 100 101 102 103
69 70 70 71 71 72 73 73 73 73 73 73 73 75 77 77 76 78 79 79 79 79 80 80 81 81 82 82 83 84 84 85 85 86 86 86 86 86 87 87 87 88 89 90 90 91 92 92 93 94 95 96 97 97 98 98 98 98 97 97 98 99 100
67 68 69 69 70 71 71 71 70 70 70 70 71 72 74 74 74 76 77 76 75 76 76 77 78 78 79 80 81 81 82 83 83 84 84 84 84 83 84 84 84 84 85 86 87 88 88 89 90 90 91 93 94 94 94 95 95 95 94 94 95 96 96
64 65 66 66 67 68 68 68 68 68 68 68 69 70 71 70 71 74 75 74 73 73 73 74 75 75 76 77 78 78 79 80 81 81 82 82 82 81 81 81 81 81 82 82 83 84 85 85 86 87 87 88 89 90 91 92 91 91 91 91 92 92 92
61 62 63 63 64 65 66 66 66 66 66 66 67 67 67 67 69 71 72 71 71 72 72 72 72 73 73 74 75 76 76 77 78 79 80 80 80 80 80 80 80 80 80 80 81 81 81 82 83 84 84 85 85 86 88 89 89 88 88 88 88 88 88
57 59 60 60 61 63 64 64 64 64 64 64 64 64 64 64 65 67 68 69 69 69 70 70 70 70 71 71 72 73 73 74 76 77 78 78 79 79 79 79 78 78 78 78 79 79 79 79 80 81 82 82 83 83 84 85 86 86 85 85 85 84 85
55 56 58 59 60 61 61 61 61 61 61 61 61 61 61 61 62 64 65 66 66 66 67 67 67 68 68 68 69 69 70 71 72 73 75 76 76 77 77 77 77 76 76 75 76 76 77 77 77 78 79 79 80 81 81 83 84 83 83 83 82 82 82
53 54 55 56 57 58 59 59 59 58 58 58 59 59 59 59 60 61 61 62 63 63 63 64 64 64 65 65 66 66 67 68 69 69 70 71 72 73 73 74 74 74 74 73 73 73 73 74 74 75 76 76 77 78 78 79 80 81 81 81 81 80 80
51 52 53 54 54 55 56 56 56 56 56 56 56 57 57 57 58 58 59 60 60 60 61 61 62 62 62 63 63 63 63 64 65 66 66 67 68 69 70 70 71 71 72 72 71 71 71 71 71 72 73 73 74 75 75 76 77 78 78 79 79 78 79
50 50 51 52 52 52 53 54 55 55 55 54 54 55 55 55 56 57 58 58 59 59 59 60 60 60 60 61 61 61 62 62 62 63 64 64 65 66 67 68 68 68 69 69 69 69 69 69 69 69 70 71 72 72 73 73 74 75 76 76 77 77 78
48 48 49 50 50 50 51 52 53 53 53 53 53 53 54 54 55 56 57 58 59 59 59 59 59 59 59 60 60 60 60 61 61 61 62 62 63 63 64 65 65 65 66 66 66 66 66 67 67 67 68 68 69 69 70 70 71 71 72 73 74 75 75
46 46 46 47 48 49 49 50 50 51 52 52 52 52 53 53 54 55 56 57 58 58 59 59 59 59 58 58 59 59 59 59 59 59 59 60 60 61 61 62 62 63 63 63 63 63 64 64 64 65 65 66 66 67 67 67 68 68 69 69 70 72 73
Wind_Direction
259 258 258 258 257 257 257 257 258 258 258 259 260 260 260 260 259 259 259 258 258 257 256 256 255 255 255 255 255 255 255 255 256 256 256 257 257 258 258 258 258 258 257 256 257 257 257 257 258 259 260 261 261 262 262 262 262 262 262 262 262 262 263
258 258 259 259 259 258 258 258 257 257 258 258 258 259 259 259 259 260 260 260 260 259 259 258 258 258 257 257 257 256 256 256 256 256 256 257 257 257 258 258 258 258 258 257 257 257 257 257 257 258 259 260 261 261 261 262 262 262 262 262 262 262 263
258 258 258 258 259 259 259 259 258 258 258 258 258 258 259 259 259 259 259 260 260 260 260 260 260 260 260 259 259 258 258 258 258 258 257 257 258 258 258 258 259 259 259 258 257 257 258 257 257 257 257 258 259 260 260 261 261 262 262 262 262 262 262
259 259 259 258 258 258 258 259 259 259 259 258 258 258 258 259 259 259 260 260 260 260 260 261 261 261 261 261 260 260 260 260 259 259 259 259 259 259 259 259 259 259 260 259 259 258 258 258 258 257 258 258 258 259 259 260 260 261 261 262 262 262 262
260 260 260 259 259 259 259 259 259 259 259 259 259 258 258 258 258 259 259 259 260 260 260 261 261 261 261 261 261 261 260 260 260 260 260 260 260 260 260 260 260 260 260 260 260 259 259 259 259 258 258 258 258 259 259 259 260 260 261 261 262 262 262
261 260 260 260 260 260 260 259 259 259 259 259 259 259 259 259 259 258 258 259 259 259 260 260 261 261 262 262 262 262 261 261 261 261 261 261 260 260 260 260 260 260 260 260 260 260 260 260 260 260 259 259 259 260 260 260 260 261 261 261 262 262 262
262 262 261 261 261 260 260 260 260 260 259 259 259 259 259 259 259 259 259 259 259 259 259 259 260 260 261 262 263 263 263 263 263 262 262 262 262 262 262 261 261 261 261 261 261 261 260 260 261 260 260 260 260 261 261 261 261 261 261 262 262 262 263
263 262 262 262 262 261 261 261 260 260 260 260 260 260 260 260 260 260 260 259 259 260 260 260 260 260 260 260 261 262 263 263 263 264 264 264 264 264 264 264 263 263 263 262 262 262 262 261 261 261 261 261 261 261 261 262 262 262 262 262 262 263 263
263 263 262 262 262 262 262 262 261 261 261 261 260 260 260 260 260 260 260 260 260 260 260 260 260 260 260 260 261 261 262 262 263 263 264 264 264 264 264 264 264 264 264 264 264 264 263 263 263 262 262 262 262 261 261 261 261 262 262 262 262 263 263
264 263 263 263 262 262 262 261 261 261 261 261 261 261 261 261 261 260 260 260 260 260 260 260 260 260 260 261 261 261 261 262 262 263 263 263 263 263 264 264 264 264 265 265 265 265 264 264 264 264 264 263 263 263 262 262 262 262 262 262 262 262 263
265 264 264 264 263 263 262 262 262 261 261 261 261 261 261 261 261 261 261 261 260 260 260 260 260 260 260 260 261 261 261 261 261 262 262 262 263 263 263 263 263 264 264 264 265 265 265 265 265 265 264 264 264 264 263 263 263 262 262 262 263 263 263
265 265 264 264 264 264 264 263 263 262 262 261 261 260 260 260 260 261 261 261 261 261 260 260 260 260 260 260 260 260 261 261 261 261 262 262 262 263 263 263 263 264 264 264 264 264 264 265 265 265 265 265 264 264 264 263 263 263 263 263 263 263 263
265 265 265 265 265 264 264 264 264 264 263 263 262 262 261 261 260 260 260 260 260 260 260 260 260 260 260 260 260 260 260 261 261 261 262 262 262 263 263 264 264 264 264 265 265 265 265 265 265 265 265 265 265 264 264 264 264 264 264 264 264 264 263
266 266 265 265 265 265 265 264 264 264 264 263 263 262 262 261 261 260 260 259 259 259 260 260 260 260 260 260 260 261 261 261 261 262 262 263 263 263 264 264 265 265 266 266 266 266 266 266 266 266 266 265 265 265 265 265 265 265 265 264 264 264 264
266 266 266 266 265 265 265 264 264 264 263 263 263 263 262 262 262 261 261 260 260 260 260 260 259 259 259 260 260 260 261 261 261 262 262 263 263 264 264 265 265 266 266 266 267 267 267 267 267 267 266 266 266 266 266 266 266 266 266 266 266 266 266
266 266 266 266 265 265 265 265 264 264 264 263 263 263 263 262 262 262 262 262 261 261 261 261 260 260 260 260 260 260 261 261 262 262 262 263 263 264 264 265 265 265 266 266 267 267 267 267 267 267 267 267 267 267 267 267 267 267 267 267 267 267 267
266 266 266 265 265 265 265 265 265 264 264 264 264 264 263 263 263 263 262 262 262 262 262 261 261 261 261 261 261 261 261 261 261 262 262 262 263 263 263 264 264 265 265 265 266 266 266 266 266 266 266 266 266 266 267 267 267 267 267 268 268 267 267
266 266 266 266 266 266 266 266 266 265 265 265 265 265 265 265 264 264 264 264 263 263 262 262 262 262 262 261 261 261 261 261 262 262 262 262 262 263 263 263 263 263 264 264 264 265 265 265 265 265 265 266 266 266 266 266 267 267 267 267 267 267 267
266 266 266 266 266 266 266 266 267 266 266 266 267 267 267 267 267 267 267 266 266 265 264 264 264 264 263 263 263 263 263 263 263 263 263 263 263 262 263 263 263 263 263 263 263 263 264 264 264 264 265 265 265 265 266 266 266 266 266 267 267 267 267
267 266 266 265 266 266 266 267 267 267 267 267 267 268 268 268 268 268 268 268 267 267 266 266 266 265 265 265 264 264 264 264 264 264 264 263 263 263 263 263 263 263 263 263 263 263 264 264 264 264 264 264 264 264 264 264 264 264 265 265 265 265 265
268 267 266 266 265 266 266 266 266 267 267 267 267 268 267 267 267 267 267 267 267 267 267 266 266 266 266 265 265 264 264 264 264 264 263 263 263 263 263 263 263 263 263 264 264 264 264 264 264 264 264 264 264 264 264 264 264 264 264 264 264 264 264
269 268 268 267 266 266 266 266 266 267 267 267 267 268 267 267 267 267 266 266 267 267 267 267 267 267 267 266 265 265 264 264 264 264 264 264 264 264 263 263 263 263 263 264 264 264 264 264 264 264 264 264 264 264 264 264 264 264 264 264 264 264 264
271 270 270 269 269 268 267 267 267 268 268 268 268 268 268 268 268 267 267 267 268 268 268 268 268 268 267 267 267 266 265 265 265 265 265 265 265 265 264 264 264 263 263 264 264 264 264 264 264 264 264 264 264 264 264 264 264 263 263 264 264 264 264
272 272 271 271 270 270 270 269 269 270 270 270 270 270 270 270 269 269 269 269 269 269 269 269 268 268 268 268 268 268 267 267 266 266 266 265 265 265 265 264 264 264 263 263 263 264 264 264 264 264 264 264 264 264 264 264 264 263 263 263 263 263 263
272 272 272 272 271 271 271 271 271 271 271 271 271 271 271 270 270 270 270 270 269 269 269 269 269 269 269 269 269 269 268 268 267 267 266 265 265 265 264 264 264 264 264 264 263 263 263 264 264 264 264 264 264 264 264 264 264 264 263 263 263 263 264
272 272 273 272 272 272 272 272 272 272 272 272 272 271 271 271 271 271 270 270 270 270 270 270 270 270 269 269 269 269 269 269 268 268 267 266 266 265 265 265 264 264 264 264 264 264 264 263 263 264 264 264 264 264 264 264 264 264 263 263 263 263 263
272 272 273 273 273 273 273 273 273 273 272 272 271 271 272 273 273 272 272 272 271 271 270 270 270 269 269 269 269 269 269 269 269 269 269 268 267 267 266 266 265 265 265 265 265 265 264 264 264 263 263 263 264 264 263 263 263 263 263 263 262 262 262
272 273 273 273 273 274 274 273 273 273 272 272 272 272 273 273 273 273 273 273 273 272 271 270 270 270 270 270 270 270 270 270 270 270 270 270 270 269 269 268 268 267 267 266 266 265 265 265 265 264 264 264 264 264 264 263 263 262 262 262 262 262 262
273 273 273 274 273 273 273 273 273 273 273 273 273 273 273 273 273 273 273 273 273 272 272 271 271 271 271 271 271 271 271 271 271 271 271 271 271 271 270 270 269 269 269 268 268 267 267 267 266 266 266 265 265 265 265 264 264 263 262 262 262 261 261
274 274 274 274 274 274 274 274 275 275 275 275 274 274 274 273 272 272 272 272 272 272 272 272 271 271 271 271 271 271 271 271 272 272 272 272 272 272 272 271 271 270 269 269 269 268 268 267 267 267 267 267 266 266 266 266 265 264 264 263 262 262 261
275 275 275 275 276 276 276 276 277 277 276 276 276 275 274 273 272 272 272 272 272 272 272 272 272 272 271 271 271 271 270 270 270 271 271 272 272 272 273 273 272 271 270 269 269 268 268 268 267 267 267 266 266 266 266 266 266 266 266 265 264 263 262
276 277 277 277 278 278 278 278 278 278 278 278 277 277 276 275 274 274 274 274 274 273 273 273 273 273 272 272 272 271 271 271 271 270 271 271 271 271 272 272 272 272 271 270 269 268 267 267 267 267 266 266 265 265 265 265 265 266 266 266 265 264 263
280 280 279 279 279 280 280 280 280 279 279 279 279 279 278 278 278 277 277 277 276 276 276 276 276 276 275 275 274 274 273 273 273 273 272 272 272 272 272 272 272 272 272 271 270 269 268 267 267 266 266 265 265 265 264 264 264 264 264 264 264 264 264
282 281 281 281 281 281 281 281 281 281 281 281 281 281 281 281 280 280 280 280 280 280 280 279 279 279 279 279 278 278 277 276 275 275 274 274 273 273 273 272 272 271 271 271 271 271 270 269 268 267 266 265 265 264 264 264 264 263 263 263 263 263 263
283 283 283 283 283 283 282 282 282 283 283 284 284 283 283 283 283 283 284 284 284 284 283 283 282 282 281 281 280 280 279 278 277 276 276 275 274 274 273 273 272 272 271 271 271 270 270 270 269 268 267 266 265 265 264 263 263 262 262 262 262 262 262
285 285 285 284 284 284 283 283 283 284 285 285 285 285 285 285 285 285 285 285 285 285 285 285 285 284 284 283 282 281 281 280 279 278 277 277 276 275 274 274 273 273 272 271 271 271 270 270 269 269 268 268 267 266 265 264 263 262 261 261 260 261 261